Flag Weather past 2 weeks in Eureka, Nunavut Territory, Canada

Now
-31 °F

Clear.


Feels Like: -31 °F
Forecast: -17 / 3 °F
Wind: 2 mph from East

Location: Eureka

Current Time: Oct 31, 2014 at 2:54:32 AM

Latest Report: Oct 31, 2014 at 2:00 AM


Visibility: 15 mi

Pressure: 30.21 "Hg

Humidity: 67%

Dew point: -38 °F

Location of EurekaLocation

Historic Weather in Eureka — Graph

°F

Eureka temperature yesterday

Maximum temperature yesterday: -26 °F (at 7:00 AM)
Minimum temperature yesterday: -31 °F (at 11:00 AM)
Average temperature yesterday: -28 °F

Past Weeks' High & Low Weather Summary

 TemperatureHumidityPressure
High10 °F (Oct 18, 12:00 AM)100% (Oct 16, 2:00 AM)30.28 "Hg (Oct 16, 2:00 AM)
Low-31 °F (Oct 29, 4:00 PM)60% (Oct 29, 10:00 AM)29.72 "Hg (Oct 22, 6:00 AM)
Average-13 °F73%30.09 "Hg
* Reported Oct 16 1:00 AM — Oct 31 1:00 AM, Eureka, Weather by CustomWeather, © 2014

Note: Actual official high and low records may vary slightly from our data, if they occured in-between our weather recording intervals... More about our weather records

Advertising

Eureka weather history for previous 24 hours

 ConditionsComfort  
Time TempWeatherWind HumidityBarometerVisibility
1:00 AM
Oct 31
-29 °FSunny.No wind67%30.20 "Hg15 mi
12:00 AM-27 °FClear.3 mph61%30.20 "Hg15 mi
11:00 PM
Oct 30
-29 °FClear.2 mph67%30.19 "Hg15 mi
10:00 PM-29 °FClear.2 mph67%30.19 "Hg15 mi
9:00 PM-29 °FClear.2 mph60%30.19 "Hg15 mi
8:00 PM-27 °FClear.No wind82%30.19 "Hg15 mi
7:00 PM-31 °FSunny.No wind67%30.18 "Hg15 mi
6:00 PM-29 °FSunny.2 mph67%30.18 "Hg15 mi
5:00 PM-29 °FSunny.3 mph67%30.17 "Hg15 mi
4:00 PM-29 °FPassing clouds.2 mph67%30.16 "Hg15 mi
3:00 PM-27 °FPartly sunny.No wind67%30.16 "Hg15 mi
2:00 PM-27 °FPartly sunny.2 mph61%30.15 "Hg15 mi
1:00 PM-27 °FPartly sunny.3 mph61%30.14 "Hg15 mi
12:00 PM-29 °FPartly sunny.2 mph67%30.14 "Hg15 mi
11:00 AM-31 °FPassing clouds.3 mph67%30.13 "Hg15 mi
10:00 AM-27 °FPassing clouds.No wind67%30.14 "Hg15 mi
9:00 AM-27 °FPassing clouds.5 mph61%30.13 "Hg15 mi
8:00 AM-27 °FPassing clouds.2 mph61%30.13 "Hg15 mi
7:00 AM-26 °FPassing clouds.2 mph61%30.13 "Hg15 mi
6:00 AM-27 °FClear.3 mph61%30.13 "Hg15 mi
5:00 AM-27 °FClear.3 mph67%30.13 "Hg15 mi
4:00 AM-27 °FClear.No wind67%30.12 "Hg15 mi
3:00 AM-27 °FClear.2 mph61%30.12 "Hg15 mi
2:00 AM-27 °FClear.2 mph67%30.11 "Hg15 mi
Weather by CustomWeather, © 2014

See weather overviewHow to use our weather pages